Weather History for Mosby, MO

Change the Weather History Date:

Friday, February 1, 2013

  Actual Average (KMKC) Record (KMKC)
Temperature  
Mean Temperature 16 °F -  
Max Temperature 28 °F 39 °F 63 °F (2012)
Min Temperature 5 °F 23 °F 5 °F (2001)
Degree Days  
Heating Degree Days 48    
Moisture  
Dew Point 8 °F    
Average Humidity 65    
Maximum Humidity 85    
Minimum Humidity 51    
Precipitation  
Precipitation 0.00 in - - ()
Sea Level Pressure  
Sea Level Pressure 30.34 in    
Wind  
Wind Speed 4 mph (South)    
Max Wind Speed 10 mph    
Max Gust Speed 16 mph    
Visibility 10 miles    
Events      
Averages and records for this station are not official NWS values.
T = Trace of Precipitation, MM = Missing Value Source: NWS Daily Summary

Daily Weather History Graph

Daily Weather History Graph

Search for Another Location

Airport:

Trip Planner

Search our weather history database for the weather conditions in past years. The results will help you decide how hot, cold, wet, or windy it might be!

Date:

Astronomy

Feb. 01, 2013 Rise Set
Actual Time 7:24 AM CST 5:38 PM CST
Civil Twilight 6:55 AM CST 6:06 PM CST
Nautical Twilight 6:23 AM CST 6:38 PM CST
Astronomical Twilight 5:52 AM CST 7:10 PM CST
Moon 11:43 PM CST (2/1) 10:00 AM CST (2/1)
Length of Visible Light 11h 10m
Length of Day
10h 14m
Waning Gibbous, 70% of the Moon is Illuminated
Feb 1
Waning Gibbous
Feb 3
Last Quarter
Feb 10
New
Feb 17
First Quarter
Feb 25
Full

Hourly Weather History & Observations

Time (CST) Temp. Windchill Dew Point Humidity Pressure Visibility Wind Dir Wind Speed Gust Speed Precip Events Conditions
12:15 AM 8.6 °F 0.1 °F 1.4 °F 73% 30.47 in 10.0 mi NW 4.6 mph - N/A   Clear
12:35 AM 8.6 °F 2.0 °F 1.4 °F 73% 30.46 in 10.0 mi NW 3.5 mph - N/A   Clear
12:55 AM 8.6 °F 2.0 °F 1.4 °F 73% 30.46 in 10.0 mi NW 3.5 mph - N/A   Clear
1:15 AM 8.6 °F 2.0 °F 1.4 °F 73% 30.46 in 10.0 mi WSW 3.5 mph - N/A   Clear
1:35 AM 8.6 °F 0.1 °F 1.4 °F 73% 30.47 in 10.0 mi WSW 4.6 mph - N/A   Clear
1:55 AM 8.6 °F - 1.4 °F 73% 30.47 in 10.0 mi Calm Calm - N/A   Clear
2:15 AM 8.6 °F - 3.2 °F 79% 30.46 in 10.0 mi Calm Calm - N/A   Clear
2:35 AM 8.6 °F - 1.4 °F 73% 30.45 in 10.0 mi Calm Calm - N/A   Clear
2:55 AM 6.8 °F - 1.4 °F 79% 30.45 in 10.0 mi Calm Calm - N/A   Clear
3:15 AM 6.8 °F - 1.4 °F 79% 30.45 in 10.0 mi Calm Calm - N/A   Clear
3:35 AM 6.8 °F - 1.4 °F 79% 30.45 in 10.0 mi Calm Calm - N/A   Clear
3:55 AM 6.8 °F -0.1 °F 1.4 °F 79% 30.45 in 10.0 mi West 3.5 mph - N/A   Unknown
4:15 AM 6.8 °F -0.1 °F 1.4 °F 79% 30.45 in 10.0 mi WSW 3.5 mph - N/A   Clear
4:35 AM 6.8 °F - 1.4 °F 79% 30.44 in 10.0 mi Calm Calm - N/A   Clear
4:55 AM 6.8 °F -0.1 °F 1.4 °F 79% 30.42 in 10.0 mi North 3.5 mph - N/A   Clear
5:15 AM 6.8 °F -2.0 °F 1.4 °F 79% 30.41 in 10.0 mi NNE 4.6 mph - N/A   Clear
5:35 AM 6.8 °F -2.0 °F 1.4 °F 79% 30.41 in 10.0 mi NNE 4.6 mph - N/A   Clear
5:55 AM 6.8 °F -0.1 °F 1.4 °F 79% 30.42 in 10.0 mi North 3.5 mph - N/A   Clear
6:35 AM 6.8 °F - 1.4 °F 79% 30.42 in 10.0 mi Calm Calm - N/A   Clear
6:55 AM 5.0 °F -4.1 °F 1.4 °F 85% 30.44 in 10.0 mi SW 4.6 mph - N/A   Clear
7:15 AM 5.0 °F - 1.4 °F 85% 30.44 in 10.0 mi Calm Calm - N/A   Unknown
7:55 AM 6.8 °F - 1.4 °F 79% 30.45 in 10.0 mi Calm Calm - N/A   Clear
8:15 AM 8.6 °F 2.0 °F -0.4 °F 67% 30.46 in 10.0 mi WSW 3.5 mph - N/A   Clear
8:35 AM 8.6 °F 2.0 °F -0.4 °F 67% 30.48 in 10.0 mi West 3.5 mph - N/A   Clear
8:55 AM 8.6 °F 2.0 °F -2.2 °F 62% 30.48 in 10.0 mi SW 3.5 mph - N/A   Clear
9:15 AM 10.4 °F 4.0 °F -0.4 °F 62% 30.47 in 10.0 mi SSE 3.5 mph - N/A   Clear
9:35 AM 10.4 °F 4.0 °F -0.4 °F 62% 30.47 in 10.0 mi South 3.5 mph - N/A   Clear
9:55 AM 12.2 °F 6.1 °F 1.4 °F 62% 30.46 in 10.0 mi SSE 3.5 mph - N/A   Clear
10:15 AM 14.0 °F 3.9 °F 3.2 °F 62% 30.45 in 10.0 mi SSW 6.9 mph - N/A   Clear
10:35 AM 14.0 °F 5.1 °F 3.2 °F 62% 30.44 in 10.0 mi SSW 5.8 mph - N/A   Clear
10:55 AM 15.8 °F 7.2 °F 5.0 °F 62% 30.42 in 10.0 mi ESE 5.8 mph - N/A   Clear
11:15 AM 17.6 °F 9.3 °F 5.0 °F 58% 30.42 in 10.0 mi SSE 5.8 mph - N/A   Clear
11:35 AM 17.6 °F 6.4 °F 6.8 °F 63% 30.41 in 10.0 mi South 9.2 mph - N/A   Clear
11:55 AM 19.4 °F 11.5 °F 6.8 °F 58% 30.40 in 10.0 mi South 5.8 mph - N/A   Clear
12:15 PM 19.4 °F 9.5 °F 6.8 °F 58% 30.38 in 10.0 mi SE 8.1 mph - N/A   Clear
12:35 PM 21.2 °F 11.7 °F 8.6 °F 58% 30.36 in 10.0 mi South 8.1 mph - N/A   Clear
12:55 PM 21.2 °F 11.7 °F 8.6 °F 58% 30.36 in 10.0 mi SSE 8.1 mph - N/A   Clear
1:15 PM 23.0 °F 13.1 °F 8.6 °F 54% 30.34 in 10.0 mi South 9.2 mph - N/A   Clear
1:35 PM 23.0 °F 14.7 °F 8.6 °F 54% 30.32 in 10.0 mi SE 6.9 mph - N/A   Clear
1:55 PM 24.8 °F 15.3 °F 10.4 °F 54% 30.32 in 10.0 mi South 9.2 mph - N/A   Clear
2:35 PM 26.6 °F 17.5 °F 10.4 °F 51% 30.30 in 10.0 mi SSW 9.2 mph - N/A   Clear
2:55 PM 26.6 °F 18.2 °F 12.2 °F 55% 30.29 in 10.0 mi South 8.1 mph - N/A   Scattered Clouds
3:15 PM 26.6 °F 18.2 °F 12.2 °F 55% 30.28 in 10.0 mi South 8.1 mph 16.1 mph N/A   Clear
3:35 PM 28.4 °F 19.7 °F 14.0 °F 55% 30.27 in 10.0 mi South 9.2 mph - N/A   Clear
3:55 PM 28.4 °F 19.1 °F 14.0 °F 55% 30.27 in 10.0 mi South 10.4 mph - N/A   Scattered Clouds
4:15 PM 26.6 °F 17.5 °F 12.2 °F 55% 30.26 in 10.0 mi South 9.2 mph - N/A   Mostly Cloudy
4:35 PM 26.6 °F 17.5 °F 12.2 °F 55% 30.25 in 10.0 mi South 9.2 mph - N/A   Mostly Cloudy
4:55 PM 26.6 °F 16.8 °F 12.2 °F 55% 30.24 in 10.0 mi South 10.4 mph - N/A   Overcast
5:15 PM 26.6 °F 17.5 °F 14.0 °F 59% 30.23 in 10.0 mi South 9.2 mph - N/A   Overcast
5:35 PM 26.6 °F 20.0 °F 14.0 °F 59% 30.22 in 10.0 mi SSE 5.8 mph - N/A   Overcast
5:55 PM 26.6 °F 19.1 °F 14.0 °F 59% 30.22 in 10.0 mi South 6.9 mph - N/A   Overcast
6:15 PM 26.6 °F 18.2 °F 14.0 °F 59% 30.20 in 10.0 mi SSE 8.1 mph - N/A   Overcast
6:35 PM 28.4 °F 19.7 °F 14.0 °F 55% 30.20 in 10.0 mi SSE 9.2 mph - N/A   Mostly Cloudy
6:55 PM 28.4 °F 20.4 °F 14.0 °F 55% 30.20 in 10.0 mi South 8.1 mph - N/A   Scattered Clouds
7:15 PM 28.4 °F 20.4 °F 14.0 °F 55% 30.19 in 10.0 mi SSE 8.1 mph - N/A   Scattered Clouds
7:35 PM 28.4 °F 20.4 °F 14.0 °F 55% 30.19 in 10.0 mi South 8.1 mph - N/A   Scattered Clouds
7:55 PM 28.4 °F 21.2 °F 14.0 °F 55% 30.20 in 10.0 mi South 6.9 mph - N/A   Scattered Clouds
8:15 PM 26.6 °F 18.2 °F 15.8 °F 64% 30.20 in 10.0 mi South 8.1 mph - N/A   Scattered Clouds
8:35 PM 28.4 °F 20.4 °F 14.0 °F 55% 30.20 in 10.0 mi South 8.1 mph - N/A   Scattered Clouds
8:55 PM 28.4 °F 21.2 °F 15.8 °F 59% 30.19 in 10.0 mi South 6.9 mph - N/A   Clear
9:15 PM 28.4 °F 22.2 °F 15.8 °F 59% 30.20 in 10.0 mi SSW 5.8 mph - N/A   Clear
9:35 PM 26.6 °F 21.2 °F 15.8 °F 64% 30.19 in 10.0 mi South 4.6 mph - N/A   Clear
9:55 PM 26.6 °F 22.6 °F 15.8 °F 64% 30.19 in 10.0 mi South 3.5 mph - N/A   Clear
10:15 PM 26.6 °F - 15.8 °F 64% 30.19 in 10.0 mi Calm Calm - N/A   Clear
10:35 PM 26.6 °F 22.6 °F 15.8 °F 64% 30.18 in 10.0 mi South 3.5 mph - N/A   Clear
10:55 PM 26.6 °F 21.2 °F 17.6 °F 69% 30.17 in 10.0 mi South 4.6 mph - N/A   Clear
11:15 PM 26.6 °F - 17.6 °F 69% 30.16 in 10.0 mi Calm Calm - N/A   Clear
11:35 PM 26.6 °F - 17.6 °F 69% 30.16 in 10.0 mi Calm Calm - N/A   Mostly Cloudy
11:55 PM 26.6 °F 22.6 °F 17.6 °F 69% 30.15 in 10.0 mi SSE 3.5 mph - N/A   Overcast